Location: Unspecified
(0.0000°N, 0.0000°E)
Time: 23:34:45
(UTC+02:00)

Meteor PRIRODA - Visible Passes

Search period start: 24 May 2016 00:00
Search period end: 03 June 2016 00:00
Orbit: 498 x 517 km, 97.4° (Epoch: 24 May)

Date Brightness Start Highest point End Pass type
(mag) Time Alt. Az. Time Alt. Az. Time Alt. Az.
24 May 4.1 06:17:07 10° N 06:20:03 50° NNW 06:20:03 50° NNW visible
25 May 4.8 05:59:51 10° NNE 06:02:32 42° NE 06:02:32 42° NE visible
26 May 5.9 05:42:55 10° NE 05:45:01 25° ENE 05:45:01 25° ENE visible
27 May 6.8 05:26:32 10° ENE 05:27:30 14° ENE 05:27:30 14° ENE visible
27 May 5.6 07:00:38 10° NW 07:02:20 14° WNW 07:02:20 14° WNW visible
28 May 4.9 06:42:10 10° NNW 06:44:49 24° WNW 06:44:49 24° WNW visible
29 May 4.2 06:24:22 10° N 06:27:17 42° NW 06:27:17 42° NW visible
30 May 4.4 06:06:56 10° NNE 06:09:46 49° NNE 06:09:46 49° NNE visible
31 May 5.5 05:49:51 10° NNE 05:52:13 31° ENE 05:52:13 31° ENE visible
01 Jun 6.4 05:33:11 10° NE 05:34:41 17° ENE 05:34:41 17° ENE visible
01 Jun 5.9 07:09:00 10° WNW 07:09:31 10° WNW 07:09:31 10° WNW visible
02 Jun 5.2 06:49:39 10° NNW 06:51:58 19° WNW 06:51:58 19° WNW visible
